Showing default

GLOBAL-2, 43812

Orbit data source: Space-Track

GLOBAL-2, 43812 is a payload satellite owned by BlackSky Global (US) in SSO that was launched on Mon, 03 Dec 2018 UTC via an FALCON 9 launch vehicle from the Air Force Western Test Range (AFWTR). Payload-class satellites include a variety of spacecraft equipped with specific instruments for various scientific and technological missions. These include communications satellites like Starlink; space stations such as the ISS; scientific satellites like the Hubble; Earth observation satellites from companies like Planet Labs, Umbra, and HawkEye 360; GPS; miniature CubeSats for education and research; and military/defense satellites.

Loading next visibility...
Identifier
43812, 2018-099BG
Orbit
SSO
Country
Flag of USUS
Related business
Manufacturer
LeoStella
Mission
Operational Commercial Imaging
Bus & Motor
BSKY, Unknown motor
Mass
55 kg wet, ~50 kg dry
Launch date (UTC)
2018-12-03 (7 years ago)
Launch vehicle
FALCON 9
Launch site
Air Force Western Test Range (AFWTR)
Object type
Payload
Rocket body
Debris
Shape & HBR
Box, 1.0 m
Radar Cross Section
0.625 m², Medium (>0.1 m² and < 1m²)

Expand to show TLE details & history
Last TLE update: 14 hours ago

TLE from 14 hours ago
0 GLOBAL-2
1 43812U 18099BG  26034.52467433  .00004635  00000-0  30693-3 0  9996
2 43812  97.3746  76.5448 0004575 248.7911 111.2829 15.07778147391760
Epoch: 2026-02-03T12:35Z
TLE epoch observation values (Epoch: 2026-02-03T12:35:31.862Z)
Latitude
-0.00001°
Longitude
113.95768°
Altitude
547.216 km
Speed
7.588 km/s
True Right ascension
05h 06m 10s
True Declination
0° 00' 00"
Sunlit
Object was in full shadow at epoch
Visualization orbit readout
Latitude
Unknown
Longitude
Unknown
Altitude
Unknown
Speed
Unknown
Apparent Right ascension
Unknown
Apparent Declination
Unknown
Sunlit
N/A
Visualization observer readout
Local Sidereal Time
05:01:04
Azimuth
Unknown
Elevation
Unknown
Doppler factor
Unknown
Orbital elements
Apogee altitude
543.137 km
Perigee altitude
536.807 km
Semi-major axis
6,918.109 km
Eccentricity
0.00046
Inclination
97.3746°
RAAN
76.5448°
Arg. of periapsis
248.7911°
True anomaly
111.33174°
Mean anomaly
111.2829°
Eccentric anomaly
111.30732°
Mean motion
3.77192 °/min
Orbital period
95.44 mins
BSTAR
0.00030693
Loading maneuver chart data...
Computing Atmospheric mass density...
Loading historical data...
Loading historical data...
Loading historical data...
Loading historical data...
Loading historical data...
Loading historical data...
Loading historical data...

Documentation

Showing up to 5 results
|